Location: Newark
(53.3469°N, 7.1606°E)
Time: 15:47:52
(UTC+00:00)

N. Korean satellite - Pass Details

Date: 20 November 2019
Orbit: 456 x 506 km, 97.2° (Epoch: 09 December)

Event Time Altitude Azimuth Distance (km) Brightness Sun altitude
Rises 04:06:41 0° 32° (NNE) 2,622 10.7 -26.0°
Reaches altitude 10° 04:10:28 10° 72° (ENE) 1,721 10.3 -25.5°
Maximum altitude 04:11:20 11° 85° (E) 1,675 10.3 -25.3°
Drops below altitude 10° 04:12:12 10° 99° (E) 1,713 10.3 -25.2°
Sets 04:15:56 0° 139° (SE) 2,575 10.8 -24.6°
